Weather Roundup
Issued by NWS

Home | Current Version | Previous Version | Text Only | Print | Product List | Glossary On
Versions: 1 2 3 4 5 6 7 8 9 10 11 12 13 14 15 16 17 18 19 20 21 22 23 24 25 26 27 28 29 30 31 32 33 34 35 36 37 38 39 40 41 42 43 44 45 46 47 48 49 50
363
NZUS93 KARX 212259
HRRWXR

CURRENT HOURLY OBSERVATIONS ACROSS
MUCH OF THE UPPER MISSISSIPPI VALLEY
NATIONAL WEATHER SERVICE LA CROSSE WI
500 PM CST TUE FEB 21 2017


...SOUTHEAST MINNESOTA...


CITY           SKY/WX    TMP DP  RH WIND       PRES   REMARKS
ROCHESTER      PTCLDY    52  44  74 S17       29.77F
ROCHESTER/MAYO FAIR      55  42  63 S14G21    29.77F
WINONA         CLOUDY    55  37  50 S7        29.79S
AUSTIN         CLOUDY    54  45  71 S12       29.77F
ALBERT LEA     CLOUDY    57  45  62 S15G22    29.75F
DODGE CENTER   NOT AVBL
PRESTON        CLOUDY    52  42  69 S12G17    29.80F
OWATONNA       MOCLDY    55  45  67 S14G21    29.75S
FARIBAULT      PTCLDY    57  46  67 S13G20    29.74S
$$

...ELSEWHERE IN MINNESOTA...


CITY           SKY/WX    TMP DP  RH WIND       PRES   REMARKS
MINNEAPOLIS    MOCLDY    60  44  55 SW9       29.71S
INTNL FALLS    CLEAR     42  33  70 NE5       29.65R
DULUTH         PTCLDY    47  35  63 SW8       29.68S
RED WING       PTCLDY    59  39  47 SW6       29.75R
REDWOOD FALLS  CLEAR     62  42  47 W10       29.69F
MANKATO          N/A     60  47  61 S9        29.73R
WORTHINGTON    CLEAR     62  45  53 SW14      29.73S
FAIRMONT       CLOUDY    62  47  57 S12       29.74S
$$

...SOUTHWEST WISCONSIN...


CITY           SKY/WX    TMP DP  RH WIND       PRES   REMARKS
LA CROSSE      MOCLDY    59  35  40 S12       29.80F
PRAIRIE DU CHI CLOUDY    58  34  40 SE5       29.85F
BOSCOBEL       CLOUDY    60  38  43 S5        29.86F
LONE ROCK      NOT AVBL
PLATTEVILLE    CLOUDY    57  41  55 S6        29.89F
FORT MC COY    CLOUDY    58  35  41 S12       29.82F
MAUSTON-NEW LI PTCLDY    60  33  35 S5        29.84F
VIROQUA        FAIR      55  37  50 S7        29.83F
WIS DELLS      CLEAR     59  30  32 SW6       29.87S
$$

...ELSEWHERE IN WISCONSIN...


CITY           SKY/WX    TMP DP  RH WIND       PRES   REMARKS
MILWAUKEE      PTCLDY    51  45  79 E7        29.89S
MADISON        MOCLDY    59  37  44 S5        29.87S
GREEN BAY      CLEAR     56  44  64 S6        29.85S
EAU CLAIRE     NOT AVBL
BLACK RVR FLS  FAIR      60  28  29 S6        29.79F
MEDFORD        PTCLDY    48  39  72 S9        29.78F
WAUSAU         CLEAR     52  34  50 S10       29.80F
WIS RAPIDS     CLEAR     56  34  43 S8        29.83F
MARSHFIELD     CLEAR     54  37  52 S9        29.79F
RICE LAKE      PTCLDY    51  39  63 SE7       29.74F
$$

...NORTHEAST IOWA...


CITY           SKY/WX    TMP DP  RH WIND       PRES   REMARKS
WATERLOO       PTCLDY    60  39  45 S13       29.83F
DUBUQUE        CLOUDY    55  40  56 SW5       29.89F
DECORAH        CLOUDY    55  43  62 S8G17     29.81F
MASON CITY     PTCLDY    58  47  66 S12       29.80S
CHARLES CITY   MOCLDY    55  48  76 S15       29.82S
OELWEIN        CLOUDY    55  46  71 S10       29.85F
$$

...ELSEWHERE IN IOWA...


CITY           SKY/WX    TMP DP  RH WIND       PRES   REMARKS
DES MOINES     PTCLDY    67  33  28 SW12      29.85F
IOWA CITY      PTCLDY    65  38  36 W5        29.90F
FORT DODGE     CLEAR     61  45  55 S15G22    29.80F
MARSHALLTOWN   CLEAR     61  41  47 S13       29.84F
CEDAR RAPIDS   PTCLDY    62  41  46 S5        29.87F
$$

...NORTHERN ILLINOIS...


CITY           SKY/WX    TMP DP  RH WIND       PRES   REMARKS
CHICAGO-OHARE  MOCLDY    64  51  62 SW6       29.89S
CHICAGO-MIDWAY MOCLDY    64  52  64 W5        29.90S
MOLINE         CLEAR     67  44  43 NW3       29.88S
ROCKFORD       PTCLDY    64  38  38 W3        29.91S
PEORIA         CLOUDY    66  55  67 SW7       29.89S
$$

NOTE: "FAIR" INDICATES FEW OR NO CLOUDS BELOW 12,000 FEET WITH NO
SIGNIFICANT WEATHER AND/OR OBSTRUCTIONS TO VISIBILITY. WIND
SPEEDS ARE IN MILES-PER-HOUR.




USA.gov is the U.S. government's official web portal to all federal, state and local government web resources and services.